NOAA NWS Hourly Roundups by Site

Regional Weather Roundup for Bismarck, ND

To Select Another Site Choose from List

Select Site:  

106
ASUS43 KBIS 201010
RWRBIS

NWR BROADCAST TEXT
NATIONAL WEATHER SERVICE BISMARCK ND
500 AM CDT THU JUN 20 2024

NOTE: "FAIR" INDICATES FEW OR NO CLOUDS BELOW 12,000 FEET WITH NO
SIGNIFICANT WEATHER AND/OR OBSTRUCTIONS TO VISIBILITY.


CITY           SKY/WX    TMP DP  RH WIND       PRES   REMARKS
WILLISTON      CLEAR     50  47  89 E6        30.20F
MINOT          CLEAR     51  48  89 CALM      30.22F
MINOT AFB      CLOUDY    52  49  89 S6        30.20S
BISMARCK       CLEAR     51  49  92 E6        30.26F
DICKINSON      CLEAR     51  49  92 S8        30.19S
GARRISON         N/A     51  49  92 SE7       30.24S
HETTINGER ARPT CLEAR     53  51  93 SE7       30.22S
JAMESTOWN      PTCLDY    55  52  89 S7        30.31S
CARRINGTON     CLEAR     54  52  94 SE9       30.30S
HAZEN          CLEAR     50  50 100 NE5       30.26R
MANDAN         CLEAR     52  52 100 SE7       30.26S
OAKES          CLOUDY    55  55 100 SE5       30.33S FOG
STANLEY        CLEAR     50  50 100 E8        30.23S
TIOGA          CLEAR     45  45 100 CALM      30.23S
WATFORD CITY   CLEAR     46  46 100 CALM      30.21S
$$

CITY           SKY/WX    TMP DP  RH WIND       PRES   REMARKS
GRAND FORKS    MOCLDY    54  47  77 SE6       30.31S
GRAND FORKS AF MOCLDY    54  49  83 S3        30.30S
DEVILS LAKE    PTCLDY    55  49  80 S8        30.26F
FARGO          MOCLDY    58  52  80 SE5       30.33R
CANDO          PTCLDY    52  52 100 SE8       30.31S
CAVALIER       MOCLDY    52  52 100 S5        30.31R
GRAFTON        PTCLDY    50  50 100 S6        30.32S
GWINNER        CLOUDY    59  59 100 SE8       30.33S
LANGDON        PTCLDY    52  52 100 SE8       30.31S
ROLLA          PTCLDY    54  48  82 S10       30.28S
WALHALLA       MOCLDY    55  50  82 S6        30.31R
$$

CITY           SKY/WX    TMP DP  RH WIND       PRES   REMARKS
ABERDEEN       CLOUDY    58  54  86 SE7       30.31F
MOBRIDGE       PTCLDY    59  53  80 SE15      30.24F
BUFFALO          N/A     53  49  86 SE12      30.18S
RAPID CITY     CLOUDY    57  52  83 SE14      30.20S
GLASGOW        CLEAR     48  44  86 NE5       30.18S
SIDNEY         CLEAR     47  45  93 N7        30.19S
WOLF POINT     CLEAR     47  45  93 NE5       30.20R
GLENDIVE       CLEAR     50  47  89 NE6       30.19R
MILES CITY     CLEAR     55  49  80 SE10      30.14S
BAKER          CLEAR     53  48  83 S14       30.19S
$$

CITY           SKY/WX    TMP DP  RH WIND       PRES   REMARKS
BILLINGS       PTCLDY    48  40  73 NW7       30.17R
GREAT FALLS    CLEAR     40  39  97 CALM      30.17S
REGINA         FOG       43  43 100 NE3       30.21S VSB 1
ESTEVAN        CLEAR     48  46  93 E6        30.20F
$$




 

View Past Reports for Bismarck, ND.

Products Courtesy of NOAA-NWS
NWS Information Parsing Script by Ken True at Saratoga Weather - Script by SE Lincoln Weather.